Weather History for Charlotte, NC

Change the Weather History Date:

Monday, February 4, 2013

  Actual Average Record
Temperature  
Mean Temperature 38 °F 42 °F  
Max Temperature 50 °F 53 °F 76 °F (1927)
Min Temperature 25 °F 31 °F 11 °F (1886)
Degree Days  
Heating Degree Days 27 23  
Month to date heating degree days 108 93  
Since 1 July heating degree days 1897 2200  
Cooling Degree Days 0 0  
Month to date cooling degree days 0 0  
Year to date cooling degree days 0 0  
Moisture  
Dew Point 22 °F    
Average Humidity 54    
Maximum Humidity 75    
Minimum Humidity 32    
Precipitation  
Precipitation 0.00 in 0.11 in 1.93 in (1882)
Month to date precipitation T 0.45  
Year to date precipitation 4.29 3.86  
Snow  
Snow 0.00 in 0.00 in 2.20 in (1907)
Month to date snowfall 0.0 0.2  
Since 1 July snowfall T 2.7  
Snow Depth 0.00 in    
Sea Level Pressure  
Sea Level Pressure 30.06 in    
Wind  
Wind Speed 5 mph (SSW)    
Max Wind Speed 13 mph    
Max Gust Speed 17 mph    
Visibility 10 miles    
Events      
T = Trace of Precipitation, MM = Missing Value Source: NWS Daily Summary

Daily Weather History Graph

Daily Weather History Graph

Search for Another Location

Airport:

Trip Planner

Search our weather history database for the weather conditions in past years. The results will help you decide how hot, cold, wet, or windy it might be!

Date:

Astronomy

Feb. 04, 2013 Rise Set
Actual Time 7:20 AM EST 5:55 PM EST
Civil Twilight 6:53 AM EST 6:22 PM EST
Nautical Twilight 6:23 AM EST 6:52 PM EST
Astronomical Twilight 5:53 AM EST 7:22 PM EST
Moon 1:51 AM EST (2/4) 12:21 PM EST (2/4)
Length of Visible Light 11h 28m
Length of Day
10h 35m
Last Quarter, 37% of the Moon is Illuminated
Feb 4
Last Quarter
Feb 10
New
Feb 17
First Quarter
Feb 25
Full
Mar 4
Last Quarter

Hourly Weather History & Observations

Time (EST) Temp. Windchill Dew Point Humidity Pressure Visibility Wind Dir Wind Speed Gust Speed Precip Events Conditions
12:52 AM 30.9 °F - 21.9 °F 69% 30.02 in 10.0 mi Calm Calm - N/A   Clear
1:52 AM 34.0 °F 29.8 °F 21.0 °F 59% 30.04 in 10.0 mi NW 4.6 mph - N/A   Clear
2:52 AM 33.1 °F 28.7 °F 19.9 °F 59% 30.04 in 10.0 mi NNW 4.6 mph - N/A   Clear
3:52 AM 30.0 °F 25.2 °F 19.0 °F 64% 30.04 in 10.0 mi NNW 4.6 mph - N/A   Clear
5:52 AM 28.4 °F - 19.4 °F 69% 30.05 in 10.0 mi Calm Calm - N/A   Partly Cloudy
6:52 AM 28.0 °F - 21.0 °F 75% 30.08 in 10.0 mi Calm Calm - N/A   Overcast
7:52 AM 30.9 °F - 19.9 °F 64% 30.11 in 10.0 mi Calm Calm - N/A   Mostly Cloudy
8:52 AM 35.1 °F - 21.9 °F 59% 30.14 in 10.0 mi Calm Calm - N/A   Mostly Cloudy
9:52 AM 39.0 °F 35.7 °F 23.0 °F 53% 30.15 in 10.0 mi SE 4.6 mph - N/A   Overcast
10:52 AM 43.0 °F 41.3 °F 19.9 °F 40% 30.14 in 10.0 mi SSE 3.5 mph - N/A   Mostly Cloudy
11:52 AM 46.0 °F 42.5 °F 21.0 °F 37% 30.11 in 10.0 mi South 6.9 mph - N/A   Overcast
12:52 PM 48.0 °F - 23.0 °F 37% 30.09 in 10.0 mi SSE 9.2 mph - N/A   Overcast
1:52 PM 50.0 °F - 24.1 °F 36% 30.06 in 10.0 mi South 6.9 mph - N/A   Overcast
2:52 PM 50.0 °F - 21.9 °F 33% 30.05 in 10.0 mi South 9.2 mph - N/A   Overcast
3:52 PM 50.0 °F - 21.9 °F 33% 30.04 in 10.0 mi South 6.9 mph - N/A   Overcast
4:52 PM 48.9 °F - 23.0 °F 36% 30.03 in 10.0 mi SSW 11.5 mph - N/A   Overcast
5:52 PM 46.0 °F 40.2 °F 23.0 °F 40% 30.04 in 10.0 mi SSW 12.7 mph - N/A   Overcast
6:52 PM 44.1 °F 40.1 °F 24.1 °F 45% 30.05 in 10.0 mi SSW 6.9 mph - N/A   Overcast
7:52 PM 42.1 °F 38.4 °F 25.0 °F 51% 30.04 in 10.0 mi South 5.8 mph - N/A   Mostly Cloudy
8:52 PM 39.0 °F - 25.0 °F 57% 30.04 in 10.0 mi Calm Calm - N/A   Mostly Cloudy
9:52 PM 39.9 °F 35.8 °F 26.1 °F 58% 30.04 in 10.0 mi South 5.8 mph - N/A   Overcast
10:52 PM 43.0 °F 40.3 °F 26.1 °F 51% 30.04 in 10.0 mi SW 4.6 mph - N/A   Mostly Cloudy
11:52 PM 42.1 °F 37.1 °F 26.1 °F 53% 30.01 in 10.0 mi SSW 8.1 mph - N/A   Overcast